Terminal Aerodrome Forecast
Issued by NWS Cheyenne, WY

Home | Current Version | Previous Version | Text Only | Print | Product List | Glossary On
Versions: 1 2 3 4 5 6 7 8 9 10 11 12 13 14 15 16 17 18 19 20 21 22 23 24 25 26 27 28 29 30 31
000
FTUS45 KCYS 281136
TAFCYS
TAF
KCYS 281136Z 2812/2912 30024G35KT P6SM BKN130
     FM281600 31026G38KT P6SM BKN100
     FM282300 34017KT P6SM OVC045
     FM290300 34012KT P6SM OVC025=

USA.gov is the U.S. government's official web portal to all federal, state and local government web resources and services.